Weather History for Windom, MN

Change the Weather History Date:

Monday, November 19, 2012

  Actual Average Record
Temperature  
Mean Temperature 48 °F -  
Max Temperature 57 °F 40 °F 60 °F (2003)
Min Temperature 39 °F 22 °F 1 °F (1986)
Degree Days  
Heating Degree Days 17    
Moisture  
Dew Point 37 °F    
Average Humidity 66    
Maximum Humidity 87    
Minimum Humidity 48    
Precipitation  
Precipitation 0.00 in - - ()
Sea Level Pressure  
Sea Level Pressure 30.01 in    
Wind  
Wind Speed 10 mph (SW)    
Max Wind Speed 14 mph    
Max Gust Speed 24 mph    
Visibility 10 miles    
Events      
Averages and records for this station are not official NWS values.
T = Trace of Precipitation, MM = Missing Value Source: NWS Daily Summary

Daily Weather History Graph

Daily Weather History Graph

Search for Another Location

Airport:

Trip Planner

Search our weather history database for the weather conditions in past years. The results will help you decide how hot, cold, wet, or windy it might be!

Date:

Astronomy

Nov. 19, 2012 Rise Set
Actual Time 7:21 AM CST 4:50 PM CST
Civil Twilight 6:49 AM CST 5:21 PM CST
Nautical Twilight 6:14 AM CST 5:57 PM CST
Astronomical Twilight 5:40 AM CST 6:31 PM CST
Moon 12:19 PM CST (11/19) 11:24 PM CST (11/19)
Length of Visible Light 10h 32m
Length of Day
9h 29m
Waxing Crescent, 41% of the Moon is Illuminated
Nov 19
Waxing Crescent
Nov 20
First Quarter
Nov 28
Full
Dec 6
Last Quarter
Dec 13
New

Hourly Weather History & Observations

Time (CST) Temp. Windchill Dew Point Humidity Pressure Visibility Wind Dir Wind Speed Gust Speed Precip Events Conditions
12:12 AM 50.0 °F - 35.6 °F 58% 30.02 in 10.0 mi South 12.7 mph 20.7 mph N/A   Overcast
12:32 AM 50.0 °F - 35.6 °F 58% 30.01 in 10.0 mi South 13.8 mph 24.2 mph N/A   Overcast
12:53 AM 50.0 °F - 35.6 °F 58% 30.00 in 10.0 mi South 12.7 mph 19.6 mph N/A   Mostly Cloudy
1:12 AM 50.0 °F - 35.6 °F 58% 30.00 in 10.0 mi South 11.5 mph 17.3 mph N/A   Mostly Cloudy
1:32 AM 51.8 °F - 35.6 °F 54% 30.00 in 10.0 mi South 10.4 mph 18.4 mph N/A   Overcast
1:53 AM 51.8 °F - 35.6 °F 54% 30.00 in 10.0 mi South 10.4 mph 17.3 mph N/A   Overcast
2:12 AM 50.0 °F - 35.6 °F 58% 30.00 in 10.0 mi South 10.4 mph 18.4 mph N/A   Scattered Clouds
2:32 AM 50.0 °F - 35.6 °F 58% 29.99 in 10.0 mi South 11.5 mph 18.4 mph N/A   Scattered Clouds
2:53 AM 50.0 °F - 37.4 °F 62% 29.99 in 10.0 mi South 10.4 mph 18.4 mph N/A   Mostly Cloudy
3:12 AM 50.0 °F - 37.4 °F 62% 29.98 in 10.0 mi South 10.4 mph 17.3 mph N/A   Mostly Cloudy
3:32 AM 50.0 °F - 37.4 °F 62% 29.98 in 10.0 mi South 10.4 mph 18.4 mph N/A   Mostly Cloudy
3:53 AM 48.2 °F - 37.4 °F 66% 29.98 in 10.0 mi SSE 11.5 mph 16.1 mph N/A   Scattered Clouds
4:12 AM 48.2 °F - 37.4 °F 66% 29.98 in 10.0 mi SSE 10.4 mph 17.3 mph N/A   Clear
4:33 AM 48.2 °F - 37.4 °F 66% 29.98 in 10.0 mi South 10.4 mph - N/A   Clear
4:53 AM 48.2 °F - 37.4 °F 66% 29.99 in 10.0 mi South 5.8 mph - N/A   Clear
5:12 AM 48.2 °F - 37.4 °F 66% 29.99 in 10.0 mi SSE 10.4 mph - N/A   Clear
5:32 AM 46.4 °F 41.5 °F 37.4 °F 71% 29.99 in 10.0 mi SSE 10.4 mph - N/A   Clear
5:53 AM 46.4 °F 41.9 °F 37.4 °F 71% 29.98 in 10.0 mi South 9.2 mph - N/A   Clear
6:12 AM 46.4 °F 41.5 °F 37.4 °F 71% 29.98 in 10.0 mi SSE 10.4 mph - N/A   Clear
6:33 AM 44.6 °F 39.2 °F 37.4 °F 76% 29.98 in 10.0 mi SSE 10.4 mph - N/A   Clear
6:52 AM 44.6 °F 39.2 °F 37.4 °F 76% 29.98 in 10.0 mi SSE 10.4 mph - N/A   Clear
7:12 AM 44.6 °F 40.2 °F 37.4 °F 76% 29.98 in 10.0 mi South 8.1 mph - N/A   Clear
7:32 AM 44.6 °F 40.7 °F 37.4 °F 76% 29.98 in 10.0 mi SSE 6.9 mph - N/A   Clear
7:52 AM 44.6 °F 39.2 °F 37.4 °F 76% 29.99 in 10.0 mi SSE 10.4 mph - N/A   Clear
8:13 AM 44.6 °F 39.2 °F 37.4 °F 76% 29.99 in 10.0 mi SSE 10.4 mph - N/A   Clear
8:32 AM 44.6 °F 38.4 °F 37.4 °F 76% 29.99 in 10.0 mi SSE 12.7 mph 16.1 mph N/A   Clear
8:53 AM 46.4 °F 41.5 °F 37.4 °F 71% 29.98 in 10.0 mi South 10.4 mph - N/A   Clear
9:13 AM 46.4 °F 41.1 °F 37.4 °F 71% 29.98 in 10.0 mi South 11.5 mph - N/A   Clear
9:32 AM 48.2 °F - 37.4 °F 66% 29.98 in 10.0 mi South 9.2 mph - N/A   Clear
9:53 AM 50.0 °F - 37.4 °F 62% 29.99 in 10.0 mi SSW 12.7 mph - N/A   Clear
10:13 AM 51.8 °F - 37.4 °F 58% 29.99 in 10.0 mi South 12.7 mph - N/A   Clear
10:32 AM 51.8 °F - 37.4 °F 58% 30.01 in 10.0 mi SSW 10.4 mph - N/A   Clear
10:53 AM 51.8 °F - 37.4 °F 58% 30.01 in 10.0 mi SW 6.9 mph - N/A   Clear
11:13 AM 53.6 °F - 37.4 °F 54% 30.01 in 10.0 mi WSW 5.8 mph - N/A   Clear
11:32 AM 53.6 °F - 37.4 °F 54% 30.00 in 10.0 mi SW 4.6 mph - N/A   Clear
11:53 AM 53.6 °F - 37.4 °F 54% 30.00 in 10.0 mi SW 4.6 mph - N/A   Clear
12:13 PM 55.4 °F - 37.4 °F 51% 30.00 in 10.0 mi WSW 3.5 mph - N/A   Clear
12:32 PM 55.4 °F - 37.4 °F 51% 29.99 in 10.0 mi Calm Calm - N/A   Clear
12:53 PM 55.4 °F - 37.4 °F 51% 29.98 in 10.0 mi Calm Calm - N/A   Clear
1:13 PM 55.4 °F - 37.4 °F 51% 29.98 in 10.0 mi Calm Calm - N/A   Clear
1:32 PM 57.2 °F - 37.4 °F 48% 29.98 in 10.0 mi Calm Calm - N/A   Clear
1:53 PM 57.2 °F - 39.2 °F 51% 29.98 in 10.0 mi Calm Calm - N/A   Clear
2:13 PM 57.2 °F - 39.2 °F 51% 29.98 in 10.0 mi SSE 4.6 mph - N/A   Clear
2:32 PM 57.2 °F - 39.2 °F 51% 29.98 in 10.0 mi South 5.8 mph - N/A   Clear
2:53 PM 57.2 °F - 39.2 °F 51% 29.99 in 10.0 mi South 3.5 mph - N/A   Clear
3:13 PM 57.2 °F - 39.2 °F 51% 29.99 in 10.0 mi West 6.9 mph - N/A   Clear
3:32 PM 57.2 °F - 39.2 °F 51% 30.00 in 10.0 mi West 6.9 mph - N/A   Clear
3:52 PM 57.2 °F - 39.2 °F 51% 30.00 in 10.0 mi WNW 6.9 mph - N/A   Clear
4:13 PM 55.4 °F - 39.2 °F 54% 30.00 in 10.0 mi NW 4.6 mph - N/A   Clear
4:32 PM 53.6 °F - 37.4 °F 54% 30.01 in 10.0 mi NW 3.5 mph - N/A   Clear
4:52 PM 51.8 °F - 37.4 °F 58% 30.02 in 10.0 mi NW 5.8 mph - N/A   Clear
5:13 PM 50.0 °F - 37.4 °F 62% 30.02 in 10.0 mi NNW 8.1 mph - N/A   Clear
5:32 PM 48.2 °F - 37.4 °F 66% 30.03 in 10.0 mi NW 10.4 mph - N/A   Clear
5:52 PM 48.2 °F - 37.4 °F 66% 30.04 in 10.0 mi NNW 9.2 mph - N/A   Clear
6:13 PM 46.4 °F 41.9 °F 37.4 °F 71% 30.05 in 10.0 mi NNW 9.2 mph - N/A   Clear
6:32 PM 44.6 °F 39.2 °F 37.4 °F 76% 30.05 in 10.0 mi NNW 10.4 mph - N/A   Clear
6:53 PM 44.6 °F 40.7 °F 37.4 °F 76% 30.06 in 10.0 mi NNW 6.9 mph - N/A   Clear
7:13 PM 42.8 °F 39.3 °F 37.4 °F 81% 30.06 in 10.0 mi NW 5.8 mph - N/A   Clear
7:32 PM 42.8 °F 39.3 °F 37.4 °F 81% 30.07 in 10.0 mi NW 5.8 mph - N/A   Clear
7:52 PM 42.8 °F 37.0 °F 37.4 °F 81% 30.07 in 10.0 mi NW 10.4 mph - N/A   Clear
8:13 PM 42.8 °F 38.6 °F 37.4 °F 81% 30.07 in 10.0 mi NW 6.9 mph - N/A   Clear
8:32 PM 44.6 °F 40.2 °F 37.4 °F 76% 30.08 in 10.0 mi NW 8.1 mph - N/A   Clear
8:53 PM 42.8 °F 37.5 °F 37.4 °F 81% 30.08 in 10.0 mi NNW 9.2 mph - N/A   Clear
9:12 PM 42.8 °F 37.0 °F 37.4 °F 81% 30.08 in 10.0 mi NW 10.4 mph - N/A   Clear
9:32 PM 42.8 °F 37.0 °F 37.4 °F 81% 30.08 in 10.0 mi NNW 10.4 mph - N/A   Clear
9:53 PM 41.0 °F 35.8 °F 37.4 °F 87% 30.08 in 10.0 mi NNW 8.1 mph - N/A   Clear
10:13 PM 41.0 °F 34.7 °F 37.4 °F 87% 30.09 in 10.0 mi NW 10.4 mph - N/A   Clear
10:32 PM 41.0 °F 35.2 °F 35.6 °F 81% 30.09 in 10.0 mi NW 9.2 mph - N/A   Clear
10:53 PM 39.2 °F 35.0 °F 35.6 °F 87% 30.10 in 10.0 mi NW 5.8 mph - N/A   Clear
11:12 PM 39.2 °F 32.5 °F 35.6 °F 87% 30.10 in 10.0 mi NW 10.4 mph - N/A   Scattered Clouds
11:32 PM 39.2 °F 32.0 °F 35.6 °F 87% 30.10 in 10.0 mi NW 11.5 mph - N/A   Mostly Cloudy
11:53 PM 39.2 °F 33.0 °F 35.6 °F 87% 30.11 in 10.0 mi NW 9.2 mph - N/A   Mostly Cloudy